Location: Newark
(42.8481°N, 0.4872°E)
Time: 08:31:27
(UTC+00:00)

SR - Pass Details

Date: 31 October 2020
Orbit: 579 x 876 km, 66.7° (Epoch: 29 November)

Event Time Altitude Azimuth Distance (km) Brightness Sun altitude
Rises 00:00:41 0° 158° (SSE) 2,781 - -61.0°
Reaches altitude 10° 00:04:16 10° 126° (SE) 1,891 - -60.9°
Maximum altitude 00:05:46 12° 105° (ESE) 1,789 - -60.9°
Drops below altitude 10° 00:07:17 10° 84° (E) 1,912 - -60.8°
Sets 00:10:57 0° 52° (NE) 2,857 - -60.7°
